Weather in Il'inka

Russia / Tyva Republic     51°06′55″N   95°28′51″E
temp.,
°C
wind,
m/s
gust,
m/s
humid.,
%
clouds,
%
prec.,
mm/h
press.,
hPa
HPBL,
m
5 march, fri
fri501:00−15se23830 0.0 103528
04:00−16se23830 0.0 103531
07:00−16ese22805 0.0 103425
10:00−7ese137021 0.0 1031271
13:00−2wsw275827 0.0 10281083
16:00−2s3762100 0.0 1025972
19:00−8wsw1288100 0.0 102821
22:00−11wnw1193100 0.0 103021
6 march, sat
sat601:00−12se1189100 0.0 103421
04:00−15se128867 0.0 103621
07:00−15se228533 0.0 103724
10:00−6se13730 0.0 1034275
13:00−1sw15641 0.0 1030791
16:000sw266330 0.0 1027836
19:00−8s128316 0.0 102821
22:00−11se23850 0.0 102830
7 march, sun
sun701:00−12se22842 0.0 102823
04:00−13se228311 0.0 102821
07:00−14se128219 0.0 102920
10:00−6sw017230 0.0 1027235
13:00−2nnw117761 0.0 1026395
16:00−2nw118275 0.0 1024368
19:00−8nnw009687 0.0 102721
22:00−10sse1291100 0.0 102921
8 march, mon
mon801:00−12sse128568 0.0 103121
04:00−13se22859 0.0 103121
07:00−13se228433 0.0 103221
10:00−4ese01710 0.0 1030244
13:00+1nw11741 0.0 1027376
16:000nw11830 0.0 1024312
19:00−7s11900 0.0 102621
22:00−9se22842 0.0 102722
9 march, tue
tue901:00−10se228311 0.0 102722
04:00−11se118348 0.0 102721
07:00−11se118369 0.0 103021
10:00−6wnw1075100 0.0 1031221
13:00−2nnw1171100 0.0 1029420
16:00−1nw11776 0.0 1028389
19:00−8e119347 0.0 103021
22:00−9se129114 0.0 103121